User: anonymous   Login
Location: Unspecified
(0.0000°N, 0.0000°E)
Time: 18:10:18
(UTC+02:00)
Language:

Cosmos 1898 Rocket - Orbit

View from above orbital plane
View from above orbital plane
View from above satellite
View from above satellite

Ground track
Ground track

The orbit data is extracted from the following two-line orbital elements,

1 18586U 87098B   16147.87457014  .00000080  00000-0  36107-4 0  9994
2 18586  74.0070 286.6516 0020074  73.6928  39.8840 14.36723779491881
Epoch (UTC): 26 May 2016 20:59:22
Eccentricity: 0.0020074
inclination: 74.0070°
perigee height: 755 km
apogee height: 783 km
right ascension of ascending node: 286.6516°
argument of perigee: 73.6928°
revolutions per day: 14.36723779
mean anomaly at epoch: 39.8840°
orbit number at epoch: 49188

The dashed part of the orbit path shows where the satellite is in the earth's shadow,  

DLR